TIANYAN 01

Last updated on Sat Dec 13 2025 00:03:09 GMT+0000 (Coordinated Universal Time)

1 44881U 19093C 25346.29653196 .00002247 00000+0 26225-3 0 9992 2 44881 97.7755 57.9375 0013403 347.8477 12.2413 14.86102963323656
UTC large
Height (km)
Speed (km/s)
/
Latitude / Longitude
Inclination (degrees)
Orbital Period (minutes)
Azimuth
Elevation
Range (km)
Doppler Factor

Next 0 passes for location: London (51.5072 / 0.1276)

Sorry there are no passes over London.